Flag for Brunei Weather past 2 weeks in Bandar Seri Begawan, Brunei

Now
84 °F

Passing clouds.


Feels Like: 94 °F
Forecast: 78 / 90 °F
Wind: 3 mph from Northwest

Location: Brunei Airport


UV Index: 7 (High)

Visibility: N/A


Pressure: 29.83 "Hg

Humidity: 79%

Dew point: 77 °F

Location of Bandar Seri BegawanLocation

Historic Weather in Bandar Seri Begawan

°F

Bandar Seri Begawan temperature yesterday

Maximum temperature yesterday: 90 °F (at 10:30 AM)
Minimum temperature yesterday: 77 °F (at 6:30 AM)
Average temperature yesterday: 84 °F

Past Weeks' High & Low Weather Summary

 TemperatureHumidityPressure
High91 °F (Apr 16, 11:30 AM)100% (Apr 10, 3:00 AM)29.92 "Hg (Apr 10, 3:00 AM)
Low75 °F (Apr 13, 12:00 AM)49% (Apr 15, 1:30 PM)29.71 "Hg (Apr 24, 3:00 PM)
Average83 °F80%29.83 "Hg
* Reported Apr 9 8:00 PM — Apr 24 8:30 PM, Bandar Seri Begawan, Weather by CustomWeather, © 2014

Note: Actual official high and low records may vary slightly from our data, if they occured in-between our weather recording intervals... More about our weather records

Advertising

Historic Weather Conditions — Data for Previous 24 hours

 ConditionsComfort  
Time TempWeatherWind HumidityBarometerVisibility
8:30 PM
Apr 24
86 °FPassing clouds.2 mph75%29.80 "HgN/A
8:00 PM84 °FPassing clouds.3 mph79%29.80 "HgN/A
7:30 PM86 °FPassing clouds.5 mph79%29.77 "HgN/A
7:00 PM86 °FPassing clouds.5 mph79%29.77 "HgN/A
6:30 PM86 °FPassing clouds.8 mph79%29.74 "HgN/A
6:00 PM86 °FPartly sunny.9 mph75%29.74 "HgN/A
5:30 PM88 °FPartly sunny.10 mph70%29.74 "HgN/A
5:00 PM88 °FPartly sunny.8 mph70%29.74 "HgN/A
4:30 PM88 °FPartly sunny.9 mph70%29.74 "HgN/A
4:00 PM88 °FPartly sunny.10 mph75%29.71 "HgN/A
3:30 PM88 °FPartly sunny.10 mph70%29.71 "HgN/A
3:00 PM90 °FPartly sunny.9 mph67%29.71 "HgN/A
2:30 PM90 °FPartly sunny.10 mph63%29.74 "HgN/A
2:00 PM90 °FPartly sunny.10 mph63%29.74 "HgN/A
1:30 PM91 °FPartly sunny.10 mph59%29.74 "HgN/A
1:00 PM90 °FPartly sunny.10 mph59%29.77 "HgN/A
12:30 PM90 °FPartly sunny.9 mph63%29.80 "HgN/A
12:00 PM90 °FPartly sunny.9 mph67%29.80 "HgN/A
11:30 AM90 °FBroken clouds.8 mph67%29.80 "HgN/A
10:30 AM88 °FBroken clouds.6 mph70%29.83 "HgN/A
10:00 AM90 °FBroken clouds.5 mph63%29.83 "HgN/A
9:30 AM90 °FBroken clouds.3 mph67%29.83 "HgN/A
9:00 AM86 °FPartly sunny.3 mph75%29.83 "HgN/A
8:30 AM86 °FPartly sunny.2 mph79%29.83 "HgN/A
8:00 AM84 °FPartly sunny.1 mph84%29.83 "Hg6 mi
7:30 AM82 °FPartly sunny.1 mph89%29.83 "Hg6 mi
7:00 AM81 °FPartly sunny.2 mph89%29.83 "Hg6 mi
6:30 AM79 °FPartly sunny.2 mph94%29.83 "HgN/A
6:00 AM79 °FPartly cloudy.2 mph94%29.80 "HgN/A
5:30 AM79 °FPassing clouds.1 mph94%29.80 "HgN/A
5:00 AM79 °FPassing clouds.2 mph94%29.80 "HgN/A
4:30 AM79 °FPassing clouds.3 mph94%29.80 "HgN/A
4:00 AM81 °FPassing clouds.3 mph89%29.80 "HgN/A
3:30 AM81 °FPassing clouds.5 mph89%29.80 "HgN/A
3:00 AM81 °FPassing clouds.2 mph89%29.80 "HgN/A
2:30 AM81 °FPartly cloudy.2 mph89%29.80 "HgN/A
2:00 AM81 °FPartly cloudy.2 mph94%29.80 "HgN/A
1:30 AM81 °FPartly cloudy.2 mph94%29.80 "HgN/A
1:00 AM81 °FPartly cloudy.2 mph89%29.83 "HgN/A
12:30 AM82 °FPartly cloudy.2 mph84%29.83 "HgN/A
12:00 AM81 °FPartly cloudy.2 mph89%29.83 "HgN/A
11:30 PM
Apr 23
82 °FPartly cloudy.3 mph84%29.86 "HgN/A
11:00 PM82 °FPassing clouds.2 mph84%29.86 "HgN/A
10:30 PM82 °FPassing clouds.3 mph84%29.83 "HgN/A
10:00 PM84 °FPassing clouds.3 mph79%29.83 "HgN/A
9:30 PM84 °FPassing clouds.2 mph79%29.83 "HgN/A
9:00 PM84 °FPassing clouds.2 mph79%29.83 "HgN/A
Weather by CustomWeather, © 2014

See weather overview